FW4085 Weather Reports


Display with metric or nautical units.
time (UTC)temp
F
wind
direction
speed
MPH
gust
MPH
rain 1hr
in
rain 24hr
in
rain mn
in
humidity
%
barometer
mb
20260504150517 61 252 4.0 9.0 0.00 0.00 0.00 48 856.2
20260504140519 60 245 3.0 11.0 0.00 0.00 0.00 48 856.2
20260504130520 56 221 4.0 9.0 0.00 0.00 0.00 49 855.9
20260504110519 48 76 2.0 4.0 0.00 0.00 0.00 67 855.3
20260504100523 40 14 1.0 2.0 0.00 0.00 0.00 79 854.8
20260504081525 43 200 1.0 2.0 0.00 0.00 0.00 76 854.9
20260504080525 44 107 1.0 1.0 0.00 0.00 0.00 75 855.0
20260504050539 45 257 2.0 3.0 0.00 0.00 0.00 65 855.1
20260504045517 45 248 2.0 4.0 0.00 0.00 0.00 67 855.1
20260504044517 45 251 2.0 3.0 0.00 0.00 0.00 65 855.1
20260504043520 45 272 1.0 2.0 0.00 0.00 0.00 65 855.1
20260504042540 45 248 2.0 3.0 0.00 0.00 0.00 65 855.1
20260504041537 45 249 2.0 3.0 0.00 0.00 0.00 65 855.1
20260504040538 45 248 2.0 3.0 0.00 0.00 0.00 65 855.1
20260504035518 45 255 2.0 4.0 0.00 0.00 0.00 64 855.0
20260504034558 44 256 2.0 4.0 0.00 0.00 0.00 63 855.0
20260504033518 45 249 2.0 4.0 0.00 0.00 0.00 63 855.0
20260504032518 45 281 1.0 3.0 0.00 0.00 0.00 61 855.1
20260504031518 45 254 2.0 4.0 0.00 0.00 0.00 61 855.1
20260504030518 46 247 2.0 4.0 0.00 0.00 0.00 57 855.1
20260504025539 46 241 3.0 6.0 0.00 0.00 0.00 55 855.2
20260504024519 47 226 2.0 5.0 0.00 0.00 0.00 54 855.2
20260504023519 47 228 3.0 5.0 0.00 0.00 0.00 52 855.2
20260504022516 47 242 3.0 5.0 0.00 0.00 0.00 53 855.2
20260504021539 47 240 3.0 6.0 0.00 0.00 0.00 52 855.2
20260504020520 47 239 3.0 7.0 0.00 0.00 0.00 52 855.2
20260504015540 47 243 2.0 6.0 0.00 0.00 0.00 51 855.2
20260504014537 47 254 3.0 6.0 0.00 0.00 0.00 50 855.2
20260504013537 47 232 3.0 6.0 0.00 0.00 0.00 49 855.2
20260504012520 47 243 1.0 4.0 0.00 0.00 0.00 49 855.2
20260504011517 48 246 3.0 5.0 0.00 0.00 0.00 48 855.2
20260504010538 48 254 3.0 9.0 0.00 0.00 0.00 47 855.2
20260504005518 48 231 2.0 4.0 0.00 0.00 0.00 47 855.2
20260504004518 49 246 3.0 6.0 0.00 0.00 0.00 45 855.3
20260504003518 49 252 4.0 8.0 0.00 0.00 0.00 44 855.3
20260504002518 48 249 4.0 10.0 0.00 0.00 0.00 44 855.3
20260504001518 49 236 2.0 6.0 0.00 0.00 0.00 43 855.3
20260504000539 49 256 4.0 9.0 0.00 0.00 0.00 42 855.3
20260503235516 49 253 3.0 8.0 0.00 0.00 0.00 40 855.4
20260503234519 50 248 3.0 8.0 0.00 0.00 0.00 39 855.4
20260503233519 50 262 4.0 7.0 0.00 0.00 0.00 39 855.4
20260503232517 50 245 3.0 7.0 0.00 0.00 0.00 39 855.4
20260503231517 51 256 3.0 7.0 0.00 0.00 0.00 38 855.5
20260503230516 51 251 4.0 10.0 0.00 0.00 0.00 38 855.5
20260503225520 52 261 3.0 7.0 0.00 0.00 0.00 38 855.6
20260503224538 53 268 4.0 9.0 0.00 0.00 0.00 37 855.6
20260503223517 53 267 5.0 9.0 0.00 0.00 0.00 38 855.6
20260503222517 53 254 5.0 13.0 0.00 0.00 0.00 38 855.6
20260503221537 53 284 4.0 9.0 0.00 0.00 0.00 38 855.7
20260503220518 53 271 3.0 8.0 0.00 0.00 0.00 40 855.7
20260503215517 51 288 3.0 10.0 0.00 0.00 0.00 42 855.6
20260503214518 52 283 4.0 6.0 0.00 0.00 0.00 42 855.6
20260503213518 52 279 6.0 11.0 0.00 0.00 0.00 41 855.6
20260503212518 53 268 4.0 10.0 0.00 0.00 0.00 41 855.7
20260503211518 52 261 3.0 9.0 0.00 0.00 0.00 43 855.7
20260503210519 51 284 4.0 10.0 0.00 0.00 0.00 43 855.6
20260503205519 51 278 4.0 12.0 0.00 0.00 0.00 45 855.5
20260503204539 50 276 3.0 7.0 0.00 0.00 0.00 45 855.4
20260503203516 49 280 4.0 11.0 0.00 0.00 0.00 45 855.4
20260503202539 49 262 4.0 8.0 0.00 0.00 0.00 46 855.4
20260503201540 49 274 5.0 11.0 0.00 0.00 0.00 45 855.4
20260503200520 49 266 3.0 7.0 0.00 0.00 0.00 47 855.4
20260503195522 49 269 4.0 7.0 0.00 0.00 0.00 46 855.4
20260503194523 49 276 4.0 9.0 0.00 0.00 0.00 46 855.4
20260503193526 49 262 5.0 8.0 0.00 0.00 0.00 45 855.4
20260503192526 48 297 4.0 11.0 0.00 0.00 0.00 46 855.4
20260503191520 48 288 4.0 11.0 0.00 0.00 0.00 46 855.4
20260503190524 49 302 3.0 11.0 0.00 0.00 0.00 46 855.4
20260503185524 48 333 4.0 12.0 0.00 0.00 0.00 46 855.4
20260503184524 48 301 4.0 9.0 0.00 0.00 0.00 46 855.4
20260503183544 49 282 4.0 12.0 0.00 0.00 0.00 46 855.4
20260503182538 48 268 4.0 10.0 0.00 0.00 0.00 47 855.4
20260503181538 48 304 3.0 9.0 0.00 0.00 0.00 46 855.3
20260503180519 48 307 4.0 10.0 0.00 0.00 0.00 46 855.3
20260503175525 48 267 4.0 10.0 0.00 0.00 0.00 46 855.3
20260503174524 48 311 4.0 9.0 0.00 0.00 0.00 46 855.3
20260503173545 48 289 3.0 8.0 0.00 0.00 0.00 46 855.4
20260503172530 48 255 4.0 8.0 0.00 0.00 0.00 46 855.4
20260503171522 48 282 4.0 7.0 0.00 0.00 0.00 46 855.3
20260503170523 49 269 5.0 11.0 0.00 0.00 0.00 47 855.4